Location: Izdebno
(52.6670°N, 16.2170°E)
Time: 06:16:46
(UTC+02:00)

Vanguard 2 Rocket - Pass Details

Date: 26 February 2024
Orbit: 555 x 3307 km, 32.9° (Epoch: 24 April)

Event Time Altitude Azimuth Distance (km) Brightness Sun altitude
Rises 20:12:03 0° 265° (W) 6,139 12.2 -25.4°
Reaches altitude 10° 20:18:01 10° 249° (WSW) 5,575 11.5 -26.2°
Maximum altitude 20:27:24 17° 216° (SW) 5,448 10.9 -27.5°
Drops below altitude 10° 20:37:53 10° 184° (S) 6,258 10.9 -29.0°
Enters shadow 20:45:14 - 168° (SSE) 7,166 11.1 -30.0°
Sets 20:45:30 0° 167° (SSE) 7,202 - -30.0°
